Content
SEND FEEDBACK

Daily
Averages
Monthly
Summary
United States of America

CHAUTAUQUA, NEW YORK


Home > North America > United States > New York
Elevation: 1264 feet     Latitude: 42 17N     Longitude: 079 37W

WEATHER
 
SELECT A DAY
Number of Records: 202,949;   Date Range: 12/11/96 - 8/30/14
 
SHARE

PRINT THIS DATA

[ ← Previous Day ]
WEATHER ALMANAC - APRIL 18, 2013
[ Next Day → ]
[ °C ]   °F
Weather ElementAverageHighLow
Temperature69.4 °F82 °F (2:53 pm)48.9 °F (1:53 am)
Dewpoint51.6 °F57.9 °F (3:53 pm)34 °F (12:53 am)
Humidity53.8 %68 % (4:53 am)39 % (12:53 am)
Barometer29.84 in30.11 in (12:53 am)29.66 in (10:53 pm)
Wind Speed17.1 mph27.6 mph (9:53 pm)
Wind Gust46 mph (2:53 pm)
Weather ElementAverage
Visibility10 mi
Wind DirectionS (178.8 °)

Weather ElementTotal
Precipitation---
Cooling Degree Days0.5 (Base 65)
Growing Degree Days15.5 (Base 50)
Averaged from 26 records on April 18, 2013
WEATHER CONDITIONS BREAKOUT
WIND DIRECTION BREAKOUT
WEATHER BY HOUR - APRIL 18, 2013
[ °C ]   °F
Local TimeTemperatureDewpointHumidityBarometerVisibilityWind DirectionWind SpeedGust SpeedPrecipitationEventsConditions
12:53 AM59.0 °F34.0 °F39 %30.11 in10.0 miVariable3.5 mphOvercast
1:53 AM48.9 °F36.0 °F61 %30.06 in10.0 miCalmClear
2:53 AM55.9 °F37.0 °F49 %30.01 in10.0 miWest (260°)4.6 mphClear
3:53 AM61.0 °F37.9 °F42 %29.99 in10.0 miWest (260°)6.9 mphMostly Cloudy
4:53 AM50.0 °F39.9 °F68 %29.99 in10.0 miNorth (350°)8.1 mphOvercast
5:53 AM62.1 °F44.1 °F52 %29.96 in10.0 miVariable3.5 mphOvercast
6:53 AM63.0 °F48.0 °F58 %29.93 in10.0 miSouth (190°)12.7 mph25.3 mphMostly Cloudy
7:53 AM64.9 °F51.1 °F61 %29.94 in10.0 miSouth (190°)19.6 mph35.7 mphScattered Clouds
8:53 AM66.0 °F53.1 °F63 %29.94 in10.0 miSSW (210°)17.3 mph29.9 mphMostly Cloudy
9:53 AM69.1 °F54.0 °F58 %29.89 in10.0 miSouth (180°)24.2 mph35.7 mphClear
10:53 AM72.0 °F55.0 °F55 %29.87 in10.0 miSouth (180°)21.9 mph35.7 mphClear
11:53 AM77.0 °F55.9 °F48 %29.85 in10.0 miSouth (190°)20.7 mph39.1 mphClear
12:53 PM79.0 °F57.0 °F47 %29.82 in10.0 miSSW (200°)21.9 mph34.5 mphClear
1:53 PM81.0 °F57.0 °F44 %29.80 in10.0 miSSW (200°)23.0 mph38.0 mphClear
2:53 PM82.0 °F57.0 °F42 %29.78 in10.0 miSouth (180°)26.5 mph46.0 mphClear
3:53 PM82.0 °F57.9 °F44 %29.74 in10.0 miSouth (170°)18.4 mph27.6 mphClear
4:53 PM80.1 °F57.9 °F47 %29.73 in10.0 miSouth (170°)18.4 mph26.5 mphClear
5:53 PM79.0 °F57.9 °F48 %29.71 in10.0 miSouth (180°)25.3 mph35.7 mphPartly Cloudy
6:53 PM75.9 °F57.0 °F52 %29.70 in10.0 miSSE (160°)25.3 mph35.7 mphClear
7:53 PM73.0 °F57.0 °F57 %29.69 in10.0 miSouth (170°)23.0 mph35.7 mphClear
8:53 PM70.0 °F57.0 °F63 %29.68 in10.0 miSouth (170°)20.7 mph32.2 mphClear
9:53 PM70.0 °F57.0 °F63 %29.69 in10.0 miSouth (170°)27.6 mph39.1 mphClear
10:53 PM71.1 °F55.9 °F59 %29.66 in10.0 miSouth (170°)26.5 mph36.8 mphClear
11:35 PM71.6 °F55.4 °F57 %29.72 in10.0 miWSW (240°)17.3 mph28.8 mphOvercast
11:50 PM69.8 °F55.4 °F60 %29.73 in10.0 miSW (230°)12.7 mph24.2 mphOvercast
11:53 PM70.0 °F57.0 °F63 %29.72 in10.0 miSW (230°)13.8 mphOvercast
Hourly data recorded from KDKK, located miles away from Chautauqua, New York







STORIES FROM OUR PARTNERS